Flag for Australia Weather past 2 weeks in Townsville, Queensland, Australia

Now
68 °F

Clear.


Feels Like: 68 °F
Forecast: 63 / 79 °F
Wind: 8 mph from Southeast

Location: Townsville Amo

Current Time: Oct 1, 2014 at 3:57:45 AM

Latest Report: Oct 1, 2014 at 3:00 AM


Visibility: N/A

Pressure: 30.01 "Hg

Humidity: 69%

Dew point: 57 °F

Location of TownsvilleLocation

Historic Weather in Townsville — Graph

°F

Townsville temperature yesterday

Maximum temperature yesterday: 81 °F (at 12:30 PM)
Minimum temperature yesterday: 66 °F (at 5:00 AM)
Average temperature yesterday: 74 °F

Past Weeks' High & Low Weather Summary

 TemperatureHumidityPressure
High88 °F (Sep 18, 1:00 PM)100% (Sep 17, 4:00 AM)30.12 "Hg (Sep 17, 4:00 AM)
Low57 °F (Sep 18, 4:00 AM)11% (Sep 18, 1:00 PM)29.89 "Hg (Sep 26, 2:30 PM)
Average74 °F69%30.02 "Hg
* Reported Sep 16 2:00 AM — Oct 1 2:30 AM, Townsville, Weather by CustomWeather, © 2014

Note: Actual official high and low records may vary slightly from our data, if they occured in-between our weather recording intervals... More about our weather records

Advertising

Townsville weather history for previous 24 hours

 ConditionsComfort  
Time TempWeatherWind HumidityBarometerVisibility
2:30 AM
Oct 1
68 °FClear.7 mph73%30.04 "HgN/A
2:00 AM70 °FPassing clouds.7 mph69%30.04 "HgN/A
1:30 AM70 °FMostly cloudy.7 mph64%30.04 "HgN/A
1:00 AM70 °FPassing clouds.7 mph69%30.04 "HgN/A
12:30 AM70 °FClear.7 mph64%30.07 "HgN/A
12:00 AM72 °FClear.9 mph57%30.07 "HgN/A
11:30 PM
Sep 30
72 °FPassing clouds.10 mph57%30.07 "HgN/A
11:00 PM72 °FClear.9 mph57%30.07 "HgN/A
10:30 PM73 °FPassing clouds.9 mph53%30.07 "HgN/A
10:00 PM73 °FClear.9 mph57%30.07 "HgN/A
9:30 PM72 °FClear.9 mph61%30.07 "HgN/A
9:00 PM73 °FClear.8 mph57%30.07 "HgN/A
8:30 PM73 °FClear.9 mph61%30.07 "HgN/A
8:00 PM73 °FClear.10 mph61%30.07 "HgN/A
7:30 PM73 °FPassing clouds.9 mph61%30.04 "HgN/A
7:00 PM73 °FPassing clouds.12 mph61%30.04 "HgN/A
6:30 PM73 °FPassing clouds.12 mph65%30.04 "HgN/A
6:00 PM73 °FSunny.13 mph65%30.01 "HgN/A
5:30 PM75 °FPassing clouds.15 mph61%30.01 "HgN/A
5:00 PM77 °FPassing clouds.16 mph57%30.01 "HgN/A
4:30 PM79 °FPassing clouds.17 mph54%29.98 "HgN/A
4:00 PM77 °FPassing clouds.17 mph57%29.98 "HgN/A
3:30 PM79 °FScattered clouds.17 mph54%30.01 "HgN/A
3:00 PM79 °FPassing clouds.18 mph54%30.01 "HgN/A
2:30 PM79 °FPassing clouds.17 mph54%30.01 "HgN/A
2:00 PM77 °FScattered clouds.18 mph57%30.01 "HgN/A
1:30 PM81 °FScattered clouds.17 mph51%30.01 "HgN/A
1:00 PM79 °FPassing clouds.17 mph51%30.04 "HgN/A
12:30 PM81 °FPassing clouds.13 mph45%30.04 "HgN/A
12:00 PM79 °FPassing clouds.10 mph48%30.07 "HgN/A
11:30 AM77 °FPassing clouds.12 mph51%30.07 "HgN/A
11:00 AM77 °FPassing clouds.9 mph47%30.09 "HgN/A
10:30 AM77 °FPassing clouds.12 mph44%30.09 "HgN/A
10:00 AM79 °FPassing clouds.12 mph39%30.12 "HgN/A
9:30 AM79 °FPassing clouds.8 mph42%30.12 "HgN/A
9:00 AM77 °FPassing clouds.10 mph44%30.12 "HgN/A
8:30 AM75 °FPassing clouds.8 mph47%30.12 "HgN/A
8:00 AM75 °FPassing clouds.9 mph47%30.12 "HgN/A
7:30 AM73 °FPassing clouds.8 mph50%30.09 "HgN/A
7:00 AM72 °FPassing clouds.6 mph57%30.09 "HgN/A
6:30 AM66 °FPassing clouds.7 mph73%30.09 "HgN/A
6:00 AM66 °FPassing clouds.7 mph68%30.07 "HgN/A
5:30 AM66 °FClear.7 mph68%30.07 "HgN/A
5:00 AM66 °FPassing clouds.7 mph68%30.07 "HgN/A
4:30 AM68 °FClear.8 mph64%30.04 "HgN/A
4:00 AM68 °FClear.9 mph64%30.04 "HgN/A
3:30 AM70 °FPassing clouds.10 mph64%30.04 "HgN/A
3:00 AM70 °FClear.9 mph64%30.04 "HgN/A
Weather by CustomWeather, © 2014

See weather overviewHow to use our weather pages